Date String (YYYY-MM-DD hh:mm:ss) UTC,Instrument flags,Ambient pressure (hPa),Sample flow (lpm),Bypass flow (lpm),Sample temperature (°C),Ambient temperature (°C),ASC tube jacket temperature (°C),LED temperature (°C),Box temperature (°C),Sample RH (%),Span deviation,Mass concentration (μg/m³),Mass concentration (μg/m³),Mass concentration (μg/m³)
DateTimeUTC,F1_M11,P_M11,Q1_M11,Q2_M11,T1_M11,T2_M11,T3_M11,T4_M11,T5_M11,U1_M11,ZSPAN_M11,X0_M11,X2_M11,X1_M11
2023-02-02 13:00:00,,0830.3,4.95,0.00,22.5,21.2,00.0,31.4,24.3,09.1,0000.0,0007.76,0003.75,0003.33
2023-02-02 13:01:00,,0830.3,5.04,0.00,22.6,22.0,00.0,31.4,24.5,09.0,0000.0,0007.46,0003.74,0003.34
2023-02-02 13:02:00,,0830.4,4.98,0.00,22.7,22.9,00.0,31.4,24.7,09.0,0000.0,0007.34,0003.75,0003.34
2023-02-02 13:03:00,,0830.4,5.02,0.00,22.8,22.9,00.0,31.4,24.8,09.0,0000.0,0007.27,0003.76,0003.35
2023-02-02 13:04:00,,0830.4,5.03,0.00,22.8,22.4,00.0,31.5,24.7,09.0,0000.0,0007.15,0003.78,0003.37
2023-02-02 13:05:00,,0830.4,5.01,0.00,22.8,22.1,00.0,31.5,24.6,09.0,0000.0,0007.12,0003.80,0003.42
2023-02-02 13:06:00,,0830.3,5.00,0.00,22.7,21.8,00.0,31.5,24.5,09.0,0000.0,0007.12,0003.82,0003.44
2023-02-02 13:07:00,,0830.2,4.98,0.00,22.7,21.6,00.0,31.5,24.5,09.0,0000.0,0006.83,0003.83,0003.46
2023-02-02 13:08:00,,0830.3,4.99,0.00,22.7,21.4,00.0,31.5,24.5,09.2,0000.0,0006.13,0003.78,0003.44
2023-02-02 13:09:00,,0830.2,5.02,0.00,22.7,21.3,00.0,31.5,24.5,09.2,0000.0,0006.40,0003.74,0003.43
2023-02-02 13:10:00,,0830.2,5.03,0.00,22.7,21.2,00.0,31.5,24.4,09.2,0000.0,0006.11,0003.70,0003.43
2023-02-02 13:11:00,,0830.2,5.03,0.00,22.7,21.1,00.0,31.5,24.4,09.1,0000.0,0007.26,0003.69,0003.41
2023-02-02 13:12:00,,0830.2,5.03,0.00,22.6,20.9,00.0,31.5,24.4,09.1,0000.0,0007.40,0003.68,0003.40
2023-02-02 13:13:00,,0830.2,5.01,0.00,22.6,20.8,00.0,31.5,24.3,09.1,0000.0,0007.38,0003.67,0003.40
2023-02-02 13:14:00,,0830.2,4.98,0.00,22.6,20.6,00.0,31.5,24.2,09.2,0000.0,0007.60,0003.69,0003.43
2023-02-02 13:15:00,,0830.3,5.00,0.00,22.5,20.4,00.0,31.5,24.1,09.2,0000.0,0007.83,0003.73,0003.45
2023-02-02 13:16:00,,0830.2,5.00,0.00,22.4,20.3,00.0,31.5,24.1,09.2,0000.0,0007.86,0003.76,0003.46
2023-02-02 13:17:00,,0830.3,5.02,0.00,22.4,20.2,00.0,31.4,24.0,09.2,0000.0,0008.21,0003.83,0003.50
2023-02-02 13:18:00,,0830.3,5.02,0.00,22.3,20.2,00.0,31.4,24.0,09.3,0000.0,0008.57,0003.91,0003.55
2023-02-02 13:19:00,,0830.4,4.99,0.00,22.4,20.9,00.0,31.3,24.1,09.3,0000.0,0008.68,0003.99,0003.61
2023-02-02 13:20:00,,0830.4,5.00,0.00,22.5,22.0,00.0,31.3,24.4,09.2,0000.0,0008.51,0004.06,0003.67
2023-02-02 13:21:00,,0830.4,5.00,0.00,22.6,22.8,00.0,31.3,24.6,09.2,0000.0,0008.58,0004.11,0003.73
2023-02-02 13:22:00,,0830.4,4.99,0.00,22.6,22.5,00.0,31.4,24.6,09.1,0000.0,0008.59,0004.14,0003.77
2023-02-02 13:23:00,,0830.4,5.04,0.00,22.6,22.1,00.0,31.4,24.5,09.2,0000.0,0008.71,0004.13,0003.76
2023-02-02 13:24:00,,0830.4,5.00,0.00,22.6,21.8,00.0,31.4,24.4,09.2,0000.0,0008.72,0004.10,0003.72
2023-02-02 13:25:00,,0830.4,5.00,0.00,22.6,21.6,00.0,31.4,24.3,09.2,0000.0,0008.46,0004.01,0003.65
2023-02-02 13:26:00,,0830.4,5.03,0.00,22.6,21.4,00.0,31.4,24.3,09.3,0000.0,0008.12,0003.91,0003.58
2023-02-02 13:27:00,,0830.5,5.00,0.00,22.5,21.2,00.0,31.4,24.3,09.3,0000.0,0007.95,0003.82,0003.52
2023-02-02 13:28:00,,0830.5,4.98,0.00,22.5,21.1,00.0,31.4,24.3,09.3,0000.0,0007.66,0003.73,0003.45
2023-02-02 13:29:00,,0830.6,5.00,0.00,22.5,21.0,00.0,31.4,24.2,09.3,0000.0,0007.31,0003.64,0003.38
2023-02-02 13:30:00,,0830.6,5.00,0.00,22.5,20.9,00.0,31.4,24.2,09.3,0000.0,0007.38,0003.62,0003.35
2023-02-02 13:31:00,,0830.6,5.02,0.00,22.4,20.8,00.0,31.4,24.1,09.3,0000.0,0007.40,0003.59,0003.31
2023-02-02 13:32:00,,0830.6,5.01,0.00,22.4,20.7,00.0,31.4,24.1,09.3,0000.0,0007.04,0003.42,0003.16
2023-02-02 13:33:00,,0830.6,5.05,0.00,22.4,20.7,00.0,31.3,24.0,09.3,0000.0,0005.93,0003.27,0002.93
2023-02-02 13:34:00,,0830.6,5.00,0.00,22.4,20.7,00.0,31.3,24.0,09.3,0000.0,0005.08,0003.15,0002.74
2023-02-02 13:35:00,,0830.6,4.99,0.00,22.3,20.7,00.0,31.3,24.0,09.3,0000.0,0004.78,0003.03,0002.58
2023-02-02 13:36:00,,0830.5,5.02,0.00,22.3,20.6,00.0,31.3,24.0,09.3,0000.0,0004.60,0002.90,0002.47
2023-02-02 13:37:00,,0830.5,5.00,0.00,22.3,20.6,00.0,31.3,24.0,09.3,0000.0,0004.49,0002.76,0002.31
2023-02-02 13:38:00,,0830.5,5.01,0.00,22.3,21.0,00.0,31.3,24.1,09.3,0000.0,0004.42,0002.59,0002.12
2023-02-02 13:39:00,,0830.4,5.00,0.00,22.4,22.0,00.0,31.2,24.3,09.3,0000.0,0004.40,0002.49,0002.01
2023-02-02 13:40:00,,0830.4,4.99,0.00,22.5,22.9,00.0,31.2,24.6,09.2,0000.0,0004.19,0002.40,0001.94
2023-02-02 13:41:00,,0830.4,4.98,0.00,22.6,22.7,00.0,31.3,24.6,09.2,0000.0,0003.82,0002.22,0001.77
2023-02-02 13:42:00,,0830.4,5.01,0.00,22.6,22.3,00.0,31.3,24.5,09.2,0000.0,0003.60,0002.02,0001.59
2023-02-02 13:43:00,,0830.4,5.01,0.00,22.6,22.0,00.0,31.3,24.4,09.1,0000.0,0003.61,0001.99,0001.54
2023-02-02 13:44:00,,0830.5,5.02,0.00,22.6,21.7,00.0,31.4,24.4,09.1,0000.0,0003.44,0001.99,0001.55
2023-02-02 13:45:00,,0830.5,5.01,0.00,22.6,21.5,00.0,31.4,24.3,09.1,0000.0,0003.40,0001.99,0001.55
2023-02-02 13:46:00,,0830.6,5.03,0.00,22.6,21.4,00.0,31.4,24.3,09.1,0000.0,0003.45,0002.01,0001.55
2023-02-02 13:47:00,,0830.5,5.00,0.00,22.5,21.2,00.0,31.4,24.3,09.1,0000.0,0003.50,0002.03,0001.55
2023-02-02 13:48:00,,0830.5,5.01,0.00,22.5,21.1,00.0,31.4,24.3,09.2,0000.0,0003.39,0002.00,0001.54
2023-02-02 13:49:00,,0830.5,5.03,0.00,22.5,21.0,00.0,31.4,24.3,09.3,0000.0,0003.38,0002.08,0001.65
2023-02-02 13:50:00,,0830.5,5.00,0.00,22.5,21.0,00.0,31.4,24.2,09.3,0000.0,0003.22,0002.11,0001.74
2023-02-02 13:51:00,,0830.5,5.03,0.00,22.5,20.9,00.0,31.4,24.2,09.3,0000.0,0003.24,0002.13,0001.76
2023-02-02 13:52:00,,0830.6,4.99,0.00,22.4,20.8,00.0,31.4,24.1,09.3,0000.0,0003.24,0002.15,0001.78
2023-02-02 13:53:00,,0830.5,5.01,0.00,22.4,20.7,00.0,31.3,24.1,09.3,0000.0,0003.16,0002.20,0001.88
2023-02-02 13:54:00,,0830.4,5.01,0.00,22.4,20.7,00.0,31.3,24.1,09.2,0000.0,0003.47,0002.44,0002.09
2023-02-02 13:55:00,,0830.4,4.99,0.00,22.3,20.6,00.0,31.3,24.0,09.2,0000.0,0003.94,0002.69,0002.30
2023-02-02 13:56:00,,0830.3,5.00,0.00,22.3,20.6,00.0,31.3,24.0,09.3,0000.0,0004.12,0002.81,0002.43
2023-02-02 13:57:00,,0830.4,4.99,0.00,22.3,21.3,00.0,31.3,24.1,09.3,0000.0,0004.12,0002.84,0002.47
2023-02-02 13:58:00,,0830.4,5.01,0.00,22.4,22.3,00.0,31.2,24.4,09.2,0000.0,0004.11,0002.85,0002.50
2023-02-02 13:59:00,,0830.5,5.00,0.00,22.6,22.8,00.0,31.3,24.6,09.1,0000.0,0004.20,0002.88,0002.51
